Time,TemperatureF,DewpointF,PressureIn,WindDirection,WindDirectionDegrees,WindSpeedMPH,WindSpeedGustMPH,Humidity,HourlyPrecipIn,Conditions,Clouds,dailyrainin,SoftwareType,DateUTC
2013-04-02 00:00:00,69.4,55.0,30.12,WSW,248,0.0,0.0,60,0.00,,SCT025,0.00,VWS V14.00,2013-04-02 04:00:00,
2013-04-02 00:05:00,69.3,55.2,30.12,WSW,248,0.0,0.0,61,0.00,,SCT025,0.00,VWS V14.00,2013-04-02 04:05:00,
2013-04-02 00:10:00,69.1,56.0,30.12,WSW,248,1.1,1.1,63,0.00,,SCT025,0.00,VWS V14.00,2013-04-02 04:10:00,
2013-04-02 00:15:00,69.1,56.0,30.12,WSW,248,0.0,0.0,63,0.00,,SCT025,0.00,VWS V14.00,2013-04-02 04:15:00,
2013-04-02 00:20:00,68.9,55.8,30.12,WSW,248,0.0,0.0,63,0.00,,SCT025,0.00,VWS V14.00,2013-04-02 04:20:00,
2013-04-02 00:25:00,68.9,56.2,30.12,WSW,248,1.3,1.3,64,0.00,,SCT025,0.00,VWS V14.00,2013-04-02 04:25:00,
2013-04-02 00:30:00,68.9,56.2,30.12,WSW,248,0.0,0.0,64,0.00,,SCT025,0.00,VWS V14.00,2013-04-02 04:30:00,
2013-04-02 00:35:00,68.5,56.3,30.12,WSW,248,0.0,0.0,65,0.00,,SCT025,0.00,VWS V14.00,2013-04-02 04:35:00,
2013-04-02 00:40:00,68.4,56.2,30.12,WSW,248,0.0,0.0,65,0.00,,SCT025,0.00,VWS V14.00,2013-04-02 04:40:00,
2013-04-02 00:45:00,68.4,56.2,30.12,WSW,248,0.0,0.0,65,0.00,,SCT025,0.00,VWS V14.00,2013-04-02 04:45:00,
2013-04-02 00:50:00,67.8,55.6,30.09,WSW,248,0.0,0.0,65,0.00,,SCT025,0.00,VWS V14.00,2013-04-02 04:50:00,
2013-04-02 00:55:00,67.6,55.9,30.09,WSW,248,0.0,0.0,66,0.00,,SCT025,0.00,VWS V14.00,2013-04-02 04:55:00,
2013-04-02 01:00:00,67.6,55.9,30.09,WSW,248,0.0,0.0,66,0.00,,SCT025,0.00,VWS V14.00,2013-04-02 05:00:00,
2013-04-02 01:05:00,67.6,55.9,30.12,WSW,248,0.0,0.0,66,0.00,,SCT025,0.00,VWS V14.00,2013-04-02 05:05:00,
2013-04-02 01:10:00,67.5,56.1,30.12,WSW,248,0.0,0.0,67,0.00,,SCT025,0.00,VWS V14.00,2013-04-02 05:10:00,
2013-04-02 01:15:00,66.9,56.4,30.12,WSW,248,0.0,0.0,69,0.00,,SCT025,0.00,VWS V14.00,2013-04-02 05:15:00,
2013-04-02 01:20:00,66.6,56.1,30.12,WSW,248,0.0,0.0,69,0.00,,SCT025,0.00,VWS V14.00,2013-04-02 05:20:00,
2013-04-02 01:25:00,66.4,55.9,30.12,WSW,248,0.0,0.0,69,0.00,,SCT025,0.00,VWS V14.00,2013-04-02 05:25:00,
2013-04-02 01:30:00,65.8,55.8,30.12,WSW,248,0.0,0.0,70,0.00,,SCT025,0.00,VWS V14.00,2013-04-02 05:30:00,
2013-04-02 01:35:00,65.5,55.8,30.12,WSW,248,0.0,0.0,71,0.00,,SCT025,0.00,VWS V14.00,2013-04-02 05:35:00,
2013-04-02 01:40:00,65.1,55.9,30.12,WSW,248,0.0,0.0,72,0.00,,SCT025,0.00,VWS V14.00,2013-04-02 05:40:00,
2013-04-02 01:45:00,64.9,57.6,30.12,WSW,248,0.0,0.0,77,0.00,,SCT025,0.00,VWS V14.00,2013-04-02 05:45:00,
2013-04-02 01:50:00,64.8,56.3,30.12,WSW,248,0.0,0.0,74,0.00,,SCT025,0.00,VWS V14.00,2013-04-02 05:50:00,
2013-04-02 01:55:00,64.8,56.3,30.12,WSW,248,0.0,0.0,74,0.00,,SCT025,0.00,VWS V14.00,2013-04-02 05:55:00,
2013-04-02 02:00:00,64.9,57.6,30.12,WSW,248,0.0,0.0,77,0.00,,SCT025,0.00,VWS V14.00,2013-04-02 06:00:00,
2013-04-02 02:05:00,65.1,58.1,30.12,WSW,248,1.1,1.1,78,0.00,,SCT025,0.00,VWS V14.00,2013-04-02 06:05:00,
2013-04-02 02:10:00,65.1,59.5,30.12,WSW,248,0.0,0.0,82,0.00,,SCT025,0.00,VWS V14.00,2013-04-02 06:10:00,
2013-04-02 02:15:00,65.3,59.7,30.12,WSW,248,0.0,0.0,82,0.00,,SCT025,0.00,VWS V14.00,2013-04-02 06:15:00,
2013-04-02 02:20:00,65.5,59.8,30.12,WSW,248,1.6,1.6,82,0.00,,SCT025,0.00,VWS V14.00,2013-04-02 06:20:00,
2013-04-02 02:25:00,65.5,60.2,30.12,WSW,248,2.2,2.2,83,0.00,,SCT025,0.00,VWS V14.00,2013-04-02 06:25:00,
2013-04-02 02:30:00,65.7,61.0,30.12,WSW,248,0.0,0.0,85,0.00,,SCT025,0.00,VWS V14.00,2013-04-02 06:30:00,
2013-04-02 02:35:00,65.7,60.7,30.12,WSW,248,1.3,1.3,84,0.00,,SCT025,0.00,VWS V14.00,2013-04-02 06:35:00,
2013-04-02 02:40:00,65.8,60.5,30.12,West,270,2.2,2.2,83,0.00,,SCT025,0.00,VWS V14.00,2013-04-02 06:40:00,
2013-04-02 02:45:00,65.8,60.5,30.12,West,270,1.6,1.6,83,0.00,,SCT025,0.00,VWS V14.00,2013-04-02 06:45:00,
2013-04-02 02:50:00,65.8,60.9,30.12,West,270,1.3,1.3,84,0.00,,SCT025,0.00,VWS V14.00,2013-04-02 06:50:00,
2013-04-02 02:55:00,66.0,62.0,30.12,WSW,248,0.0,0.0,87,0.00,,SCT025,0.00,VWS V14.00,2013-04-02 06:55:00,
2013-04-02 03:00:00,66.0,62.0,30.12,WSW,248,1.1,1.1,87,0.00,,SCT025,0.00,VWS V14.00,2013-04-02 07:00:00,
2013-04-02 03:05:00,66.0,62.4,30.12,WSW,248,1.1,1.1,88,0.00,,SCT025,0.00,VWS V14.00,2013-04-02 07:05:00,
2013-04-02 03:10:00,66.0,62.4,30.12,WSW,248,0.0,0.0,88,0.00,,SCT025,0.00,VWS V14.00,2013-04-02 07:10:00,
2013-04-02 03:15:00,66.0,62.4,30.12,West,270,1.1,1.1,88,0.00,,SCT025,0.00,VWS V14.00,2013-04-02 07:15:00,
2013-04-02 03:20:00,66.0,62.7,30.12,West,270,0.0,0.0,89,0.00,,SCT025,0.00,VWS V14.00,2013-04-02 07:20:00,
2013-04-02 03:25:00,66.0,62.7,30.09,West,270,0.0,0.0,89,0.00,,SCT025,0.00,VWS V14.00,2013-04-02 07:25:00,
2013-04-02 03:30:00,65.8,62.5,30.09,West,270,0.0,0.0,89,0.00,,SCT025,0.00,VWS V14.00,2013-04-02 07:30:00,
2013-04-02 03:35:00,65.8,62.5,30.09,West,270,0.0,0.0,89,0.00,,SCT025,0.00,VWS V14.00,2013-04-02 07:35:00,
2013-04-02 03:40:00,66.0,63.0,30.09,West,270,0.0,0.0,90,0.00,,SCT025,0.00,VWS V14.00,2013-04-02 07:40:00,
2013-04-02 03:45:00,66.0,63.0,30.09,West,270,0.0,0.0,90,0.00,,SCT025,0.00,VWS V14.00,2013-04-02 07:45:00,
2013-04-02 03:50:00,65.8,63.1,30.12,West,270,1.1,1.1,91,0.00,,SCT025,0.00,VWS V14.00,2013-04-02 07:50:00,
2013-04-02 03:54:00,65.8,63.1,30.12,West,270,0.0,0.0,91,0.00,,SCT025,0.00,VWS V14.00,2013-04-02 07:54:00,
2013-04-02 03:59:00,65.5,62.8,30.12,West,270,1.1,1.1,91,0.00,,SCT025,0.00,VWS V14.00,2013-04-02 07:59:00,
2013-04-02 04:04:00,65.5,62.8,30.12,West,270,0.9,0.9,91,0.00,,SCT025,0.00,VWS V14.00,2013-04-02 08:04:00,
2013-04-02 04:09:00,65.3,62.6,30.12,West,270,2.7,2.7,91,30.84,,SCT025,30.84,VWS V14.00,2013-04-02 08:09:00,
2013-04-02 04:14:00,65.1,62.7,30.12,West,270,1.1,1.1,92,30.84,,SCT025,30.84,VWS V14.00,2013-04-02 08:14:00,
2013-04-02 04:19:00,65.1,62.7,30.12,West,270,1.3,1.3,92,0.00,,SCT025,0.00,VWS V14.00,2013-04-02 08:19:00,
2013-04-02 04:24:00,64.9,62.9,30.12,West,270,0.0,0.0,93,0.00,,SCT025,0.00,VWS V14.00,2013-04-02 08:24:00,
2013-04-02 04:29:00,64.8,62.4,30.12,WSW,248,0.0,0.0,92,0.00,,SCT025,0.00,VWS V14.00,2013-04-02 08:29:00,
2013-04-02 04:34:00,64.8,62.4,30.12,WSW,248,0.0,0.0,92,0.00,,SCT025,0.00,VWS V14.00,2013-04-02 08:34:00,
2013-04-02 04:39:00,64.6,62.5,30.12,WSW,248,0.9,0.9,93,0.00,,SCT025,0.00,VWS V14.00,2013-04-02 08:39:00,
2013-04-02 04:44:00,64.6,62.5,30.12,West,270,1.3,1.3,93,0.00,,SCT025,0.00,VWS V14.00,2013-04-02 08:44:00,
2013-04-02 04:49:00,64.6,62.8,30.12,West,270,0.0,0.0,94,0.00,,SCT025,0.00,VWS V14.00,2013-04-02 08:49:00,
2013-04-02 04:54:00,64.4,62.6,30.12,West,270,0.0,0.0,94,0.00,,SCT025,0.00,VWS V14.00,2013-04-02 08:54:00,
2013-04-02 04:59:00,64.4,62.9,30.12,West,270,1.3,1.3,95,0.00,,SCT025,0.00,VWS V14.00,2013-04-02 08:59:00,
2013-04-02 05:04:00,64.4,62.9,30.12,West,270,0.0,0.0,95,0.00,,SCT025,0.00,VWS V14.00,2013-04-02 09:04:00,
2013-04-02 05:09:00,64.4,63.2,30.12,West,270,0.0,0.0,96,0.00,,SCT025,0.00,VWS V14.00,2013-04-02 09:09:00,
2013-04-02 05:14:00,64.4,63.2,30.09,West,270,0.0,0.0,96,0.00,,SCT025,0.00,VWS V14.00,2013-04-02 09:14:00,
2013-04-02 05:19:00,64.4,63.2,30.09,West,270,0.0,0.0,96,0.00,,SCT025,0.00,VWS V14.00,2013-04-02 09:19:00,
2013-04-02 05:24:00,64.2,63.1,30.09,West,270,0.0,0.0,96,0.00,,SCT025,0.00,VWS V14.00,2013-04-02 09:24:00,
2013-04-02 05:29:00,64.2,63.1,30.09,West,270,0.0,0.0,96,0.00,,SCT025,0.00,VWS V14.00,2013-04-02 09:29:00,
2013-04-02 05:34:00,64.2,63.1,30.12,West,270,0.0,0.0,96,0.00,,SCT025,0.00,VWS V14.00,2013-04-02 09:34:00,
2013-04-02 05:39:00,64.2,63.3,30.12,West,270,1.6,1.6,97,0.00,,SCT025,0.00,VWS V14.00,2013-04-02 09:39:00,
2013-04-02 05:44:00,64.2,63.7,30.12,West,270,2.5,2.5,98,0.00,,SCT025,0.00,VWS V14.00,2013-04-02 09:44:00,
2013-04-02 05:49:00,64.0,63.5,30.12,West,270,1.1,1.1,98,0.00,,SCT025,0.00,VWS V14.00,2013-04-02 09:49:00,
2013-04-02 05:54:00,64.0,63.5,30.12,West,270,0.0,0.0,98,0.00,,SCT025,0.00,VWS V14.00,2013-04-02 09:54:00,
2013-04-02 05:59:00,64.0,63.5,30.12,West,270,0.0,0.0,98,0.00,,SCT025,0.00,VWS V14.00,2013-04-02 09:59:00,
2013-04-02 06:04:00,64.0,63.5,30.12,West,270,1.6,1.6,98,0.00,,SCT025,0.00,VWS V14.00,2013-04-02 10:04:00,
2013-04-02 06:09:00,63.9,63.3,30.12,West,270,0.9,0.9,98,0.00,,SCT025,0.00,VWS V14.00,2013-04-02 10:09:00,
2013-04-02 06:14:00,63.9,63.3,30.12,West,270,0.9,0.9,98,0.00,,SCT025,0.00,VWS V14.00,2013-04-02 10:14:00,
2013-04-02 06:19:00,63.9,63.3,30.12,WSW,248,0.0,0.0,98,0.00,,SCT025,0.00,VWS V14.00,2013-04-02 10:19:00,
2013-04-02 06:24:00,63.9,63.3,30.12,WSW,248,0.0,0.0,98,0.00,,SCT025,0.00,VWS V14.00,2013-04-02 10:24:00,
2013-04-02 06:29:00,63.9,63.3,30.12,West,270,1.3,1.3,98,0.00,,SCT025,0.00,VWS V14.00,2013-04-02 10:29:00,
2013-04-02 06:34:00,63.9,63.3,30.12,WSW,248,0.0,0.0,98,0.00,,SCT025,0.00,VWS V14.00,2013-04-02 10:34:00,
2013-04-02 06:39:00,63.9,63.3,30.12,West,270,1.6,1.6,98,0.00,,SCT025,0.00,VWS V14.00,2013-04-02 10:39:00,
2013-04-02 06:44:00,63.9,63.3,30.12,West,270,0.0,0.0,98,0.00,,SCT025,0.00,VWS V14.00,2013-04-02 10:44:00,
2013-04-02 06:49:00,63.9,63.3,30.15,WSW,248,1.3,1.3,98,0.00,,SCT025,0.00,VWS V14.00,2013-04-02 10:49:00,
2013-04-02 06:54:00,63.7,63.1,30.15,West,270,0.0,0.0,98,0.00,,SCT025,0.00,VWS V14.00,2013-04-02 10:54:00,
2013-04-02 06:59:00,63.7,63.1,30.15,WSW,248,2.0,2.0,98,0.00,,SCT025,0.00,VWS V14.00,2013-04-02 10:59:00,
2013-04-02 07:04:00,63.7,63.1,30.15,WSW,248,2.2,2.2,98,0.00,,SCT025,0.00,VWS V14.00,2013-04-02 11:04:00,
2013-04-02 07:09:00,63.5,62.9,30.15,West,270,1.6,1.6,98,0.00,,SCT025,0.00,VWS V14.00,2013-04-02 11:09:00,
2013-04-02 07:14:00,63.5,62.9,30.15,West,270,1.3,1.3,98,0.00,,SCT025,0.00,VWS V14.00,2013-04-02 11:14:00,
2013-04-02 07:19:00,63.5,62.9,30.15,WSW,248,0.0,0.0,98,0.00,,SCT025,0.00,VWS V14.00,2013-04-02 11:19:00,
2013-04-02 07:24:00,63.7,63.1,30.15,WSW,248,0.9,0.9,98,0.00,,SCT025,0.00,VWS V14.00,2013-04-02 11:24:00,
2013-04-02 07:29:00,63.7,63.1,30.15,WSW,248,0.0,0.0,98,0.00,,SCT025,0.00,VWS V14.00,2013-04-02 11:29:00,
2013-04-02 07:34:00,63.7,63.1,30.15,West,270,0.9,0.9,98,0.00,,SCT025,0.00,VWS V14.00,2013-04-02 11:34:00,
2013-04-02 07:39:00,63.9,63.3,30.15,West,270,0.0,0.0,98,0.00,,SCT025,0.00,VWS V14.00,2013-04-02 11:39:00,
2013-04-02 07:44:00,63.9,63.3,30.15,West,270,0.0,0.0,98,0.00,,SCT025,0.00,VWS V14.00,2013-04-02 11:44:00,
2013-04-02 07:49:00,64.0,63.5,30.18,West,270,0.9,0.9,98,30.84,,SCT025,30.84,VWS V14.00,2013-04-02 11:49:00,
2013-04-02 07:54:00,64.2,63.7,30.18,West,270,0.0,0.0,98,0.00,,SCT025,0.00,VWS V14.00,2013-04-02 11:54:00,
2013-04-02 07:59:00,64.4,63.8,30.18,West,270,0.0,0.0,98,0.00,,SCT025,0.00,VWS V14.00,2013-04-02 11:59:00,
2013-04-02 08:04:00,64.6,64.0,30.18,NW,315,0.0,0.0,98,0.00,,SCT025,0.00,VWS V14.00,2013-04-02 12:04:00,
2013-04-02 08:09:00,65.8,65.3,30.18,West,270,0.0,0.0,98,0.00,,SCT025,0.00,VWS V14.00,2013-04-02 12:09:00,
2013-04-02 08:14:00,65.8,65.3,30.18,West,270,1.1,1.1,98,0.00,,SCT025,0.00,VWS V14.00,2013-04-02 12:14:00,
2013-04-02 08:19:00,67.6,66.5,30.18,West,270,0.0,0.0,96,0.00,,SCT025,0.00,VWS V14.00,2013-04-02 12:19:00,
2013-04-02 08:24:00,68.9,66.8,30.18,WSW,248,2.2,2.2,93,0.00,,SCT025,0.00,VWS V14.00,2013-04-02 12:24:00,
2013-04-02 08:29:00,69.6,65.9,30.18,West,270,2.7,2.7,88,0.00,,SCT025,0.00,VWS V14.00,2013-04-02 12:29:00,
2013-04-02 08:34:00,70.7,64.2,30.18,WSW,248,2.2,2.2,80,0.00,,SCT025,0.00,VWS V14.00,2013-04-02 12:34:00,
2013-04-02 08:39:00,71.1,64.2,30.18,West,270,0.0,0.0,79,0.00,,SCT025,0.00,VWS V14.00,2013-04-02 12:39:00,
2013-04-02 08:44:00,71.6,62.1,30.18,WSW,248,2.5,2.5,72,0.00,,SCT025,0.00,VWS V14.00,2013-04-02 12:44:00,
2013-04-02 08:49:00,72.0,61.2,30.15,West,270,2.0,2.0,69,0.00,,SCT025,0.00,VWS V14.00,2013-04-02 12:49:00,
2013-04-02 08:54:00,72.5,61.8,30.15,WNW,292,2.2,2.2,69,0.00,,SCT025,0.00,VWS V14.00,2013-04-02 12:54:00,
2013-04-02 08:59:00,72.9,60.0,30.18,West,270,3.1,3.1,64,0.00,,SCT025,0.00,VWS V14.00,2013-04-02 12:59:00,
2013-04-02 09:04:00,73.2,59.9,30.18,West,270,0.9,0.9,63,0.00,,SCT025,0.00,VWS V14.00,2013-04-02 13:04:00,
2013-04-02 09:09:00,74.1,59.8,30.18,WNW,292,1.1,1.1,61,0.00,,SCT025,0.00,VWS V14.00,2013-04-02 13:09:00,
2013-04-02 09:14:00,75.2,57.9,30.18,West,270,2.5,2.5,55,0.00,,SCT025,0.00,VWS V14.00,2013-04-02 13:14:00,
2013-04-02 09:19:00,75.9,57.0,30.18,West,270,2.0,2.0,52,0.00,,SCT025,0.00,VWS V14.00,2013-04-02 13:19:00,
2013-04-02 09:24:00,76.3,57.4,30.18,West,270,1.1,1.1,52,0.00,,SCT025,0.00,VWS V14.00,2013-04-02 13:24:00,
2013-04-02 09:29:00,76.6,58.2,30.18,West,270,0.0,0.0,53,0.00,,SCT025,0.00,VWS V14.00,2013-04-02 13:29:00,
2013-04-02 09:34:00,77.9,57.2,30.21,West,270,0.0,0.0,49,0.00,,SCT025,0.00,VWS V14.00,2013-04-02 13:34:00,
2013-04-02 09:39:00,78.6,54.9,30.21,WNW,292,1.6,1.6,44,0.00,,SCT025,0.00,VWS V14.00,2013-04-02 13:39:00,
2013-04-02 09:44:00,79.0,55.8,30.21,West,270,1.3,1.3,45,0.00,,SCT025,0.00,VWS V14.00,2013-04-02 13:44:00,
2013-04-02 09:49:00,79.0,54.6,24.57,West,270,2.0,2.0,43,0.00,,SCT025,0.00,VWS V14.00,2013-04-02 13:49:00,
2013-04-02 09:54:00,78.6,55.5,30.21,WNW,292,0.0,0.0,45,0.00,,SCT025,0.00,VWS V14.00,2013-04-02 13:54:00,
2013-04-02 09:59:00,78.3,54.0,30.21,West,270,1.1,1.1,43,0.00,,SCT025,0.00,VWS V14.00,2013-04-02 13:59:00,
2013-04-02 10:04:00,78.1,54.4,30.21,WNW,292,2.2,2.2,44,0.00,,SCT025,0.00,VWS V14.00,2013-04-02 14:04:00,
2013-04-02 10:09:00,78.1,53.8,30.21,WNW,292,0.0,0.0,43,0.00,,SCT025,0.00,VWS V14.00,2013-04-02 14:09:00,
2013-04-02 10:14:00,78.1,53.8,30.21,NW,315,0.0,0.0,43,0.00,,SCT025,0.00,VWS V14.00,2013-04-02 14:14:00,
2013-04-02 10:19:00,77.9,53.6,30.21,West,270,0.0,0.0,43,0.00,,SCT025,0.00,VWS V14.00,2013-04-02 14:19:00,
2013-04-02 10:24:00,77.9,53.6,30.21,WSW,248,2.0,2.0,43,0.00,,SCT025,0.00,VWS V14.00,2013-04-02 14:24:00,
2013-04-02 10:29:00,77.7,53.5,30.21,North,0,2.5,2.5,43,0.00,,SCT025,0.00,VWS V14.00,2013-04-02 14:29:00,
2013-04-02 10:34:00,78.1,53.2,30.21,WSW,248,0.0,0.0,42,0.00,,SCT025,0.00,VWS V14.00,2013-04-02 14:34:00,
2013-04-02 10:39:00,78.3,54.0,30.21,SW,225,2.9,2.9,43,0.00,,SCT025,0.00,VWS V14.00,2013-04-02 14:39:00,
2013-04-02 10:44:00,78.4,52.1,30.21,WNW,292,0.0,0.0,40,0.00,,SCT025,0.00,VWS V14.00,2013-04-02 14:44:00,
2013-04-02 10:49:00,78.6,51.6,30.21,NE,45,1.3,1.3,39,0.00,,SCT025,0.00,VWS V14.00,2013-04-02 14:49:00,
2013-04-02 10:54:00,78.4,50.8,30.21,NNW,338,1.1,1.1,38,0.00,,SCT025,0.00,VWS V14.00,2013-04-02 14:54:00,
2013-04-02 10:59:00,78.4,50.8,30.21,NNW,338,1.1,1.1,38,0.00,,SCT025,0.00,VWS V14.00,2013-04-02 14:59:00,
2013-04-02 11:04:00,78.4,50.8,30.21,ENE,68,3.1,3.1,38,0.00,,SCT025,0.00,VWS V14.00,2013-04-02 15:04:00,
2013-04-02 11:09:00,78.1,46.7,30.21,ESE,112,3.4,3.4,33,0.00,,SCT025,0.00,VWS V14.00,2013-04-02 15:09:00,
2013-04-02 11:14:00,78.4,48.5,30.21,NE,45,1.3,1.3,35,0.00,,SCT025,0.00,VWS V14.00,2013-04-02 15:14:00,
2013-04-02 11:19:00,78.8,48.1,30.21,NW,315,0.9,0.9,34,0.00,,SCT025,0.00,VWS V14.00,2013-04-02 15:19:00,
2013-04-02 11:24:00,79.0,47.5,30.21,NE,45,3.4,3.4,33,0.00,,SCT025,0.00,VWS V14.00,2013-04-02 15:24:00,
2013-04-02 11:28:00,79.0,47.5,30.21,SSW,202,2.7,2.7,33,0.00,,SCT025,0.00,VWS V14.00,2013-04-02 15:28:00,
2013-04-02 11:34:00,79.0,47.5,30.21,NW,315,4.9,4.9,33,0.00,,SCT025,0.00,VWS V14.00,2013-04-02 15:34:00,
2013-04-02 11:39:00,78.6,47.1,30.21,ENE,68,7.2,7.2,33,0.00,,SCT025,0.00,VWS V14.00,2013-04-02 15:39:00,
2013-04-02 11:44:00,78.6,47.1,30.21,SSW,202,4.0,4.0,33,0.00,,SCT025,0.00,VWS V14.00,2013-04-02 15:44:00,
2013-04-02 11:49:00,79.0,46.6,30.21,NE,45,6.7,6.7,32,0.00,,SCT025,0.00,VWS V14.00,2013-04-02 15:49:00,
2013-04-02 11:54:00,79.0,46.6,30.21,WSW,248,2.5,2.5,32,0.00,,SCT025,0.00,VWS V14.00,2013-04-02 15:54:00,
2013-04-02 11:59:00,79.2,46.0,30.21,ESE,112,1.6,1.6,31,0.00,,SCT025,0.00,VWS V14.00,2013-04-02 15:59:00,
2013-04-02 12:04:00,79.0,45.8,30.21,ESE,112,4.3,4.3,31,0.00,,SCT025,0.00,VWS V14.00,2013-04-02 16:04:00,
2013-04-02 12:09:00,79.0,46.6,30.21,ENE,68,5.6,5.6,32,0.00,,SCT025,0.00,VWS V14.00,2013-04-02 16:09:00,
2013-04-02 12:14:00,79.0,45.8,30.21,NNE,22,2.0,2.0,31,0.00,,SCT025,0.00,VWS V14.00,2013-04-02 16:14:00,
2013-04-02 12:19:00,79.2,46.0,30.21,North,0,3.8,3.8,31,0.00,,SCT025,0.00,VWS V14.00,2013-04-02 16:19:00,
2013-04-02 12:24:00,79.0,46.6,30.21,NE,45,3.1,3.1,32,0.00,,SCT025,0.00,VWS V14.00,2013-04-02 16:24:00,
2013-04-02 12:29:00,79.3,47.8,30.21,ENE,68,4.9,4.9,33,0.00,,SCT025,0.00,VWS V14.00,2013-04-02 16:29:00,
2013-04-02 12:34:00,79.3,47.8,30.21,NE,45,8.5,8.5,33,0.00,,SCT025,0.00,VWS V14.00,2013-04-02 16:34:00,
2013-04-02 12:39:00,79.0,46.6,30.21,NNE,22,6.0,6.0,32,0.00,,SCT025,0.00,VWS V14.00,2013-04-02 16:39:00,
2013-04-02 12:44:00,78.6,47.1,30.21,NNE,22,3.6,3.6,33,0.00,,SCT025,0.00,VWS V14.00,2013-04-02 16:44:00,
2013-04-02 12:49:00,78.6,47.1,30.21,NNE,22,6.0,6.0,33,0.00,,SCT025,0.00,VWS V14.00,2013-04-02 16:49:00,
2013-04-02 12:54:00,79.2,47.6,30.21,NW,315,3.4,3.4,33,0.00,,SCT025,0.00,VWS V14.00,2013-04-02 16:54:00,
2013-04-02 12:59:00,78.8,48.9,30.21,ENE,68,5.4,5.4,35,0.00,,SCT025,0.00,VWS V14.00,2013-04-02 16:59:00,
2013-04-02 13:04:00,78.8,48.9,30.21,NNE,22,7.4,7.4,35,0.00,,SCT025,0.00,VWS V14.00,2013-04-02 17:04:00,
2013-04-02 13:09:00,77.5,50.0,30.21,WSW,248,4.9,4.9,38,0.00,,SCT025,0.00,VWS V14.00,2013-04-02 17:09:00,
2013-04-02 13:14:00,77.5,50.7,30.21,East,90,2.9,2.9,39,0.00,,SCT025,0.00,VWS V14.00,2013-04-02 17:14:00,
2013-04-02 13:19:00,77.4,50.5,30.21,NE,45,3.8,3.8,39,0.00,,SCT025,0.00,VWS V14.00,2013-04-02 17:19:00,
2013-04-02 13:24:00,77.5,50.7,30.21,NNW,338,5.4,5.4,39,0.00,,SCT025,0.00,VWS V14.00,2013-04-02 17:24:00,
2013-04-02 13:29:00,77.7,50.1,30.21,WNW,292,3.6,3.6,38,0.00,,SCT025,0.00,VWS V14.00,2013-04-02 17:29:00,
2013-04-02 13:34:00,78.1,51.1,30.21,North,0,5.6,5.6,39,0.00,,SCT025,0.00,VWS V14.00,2013-04-02 17:34:00,
2013-04-02 13:39:00,77.7,50.1,30.21,NNW,338,4.9,4.9,38,0.00,,SCT025,0.00,VWS V14.00,2013-04-02 17:39:00,
2013-04-02 13:44:00,77.9,49.6,30.21,WSW,248,1.6,1.6,37,0.00,,SCT025,0.00,VWS V14.00,2013-04-02 17:44:00,
2013-04-02 13:49:00,77.5,51.3,30.21,NE,45,2.7,2.7,40,0.00,,SCT025,0.00,VWS V14.00,2013-04-02 17:49:00,
2013-04-02 13:54:00,77.4,50.5,30.21,East,90,5.8,5.8,39,0.00,,SCT025,0.00,VWS V14.00,2013-04-02 17:54:00,
2013-04-02 13:59:00,77.2,50.3,30.21,ENE,68,3.1,3.1,39,0.00,,SCT025,0.00,VWS V14.00,2013-04-02 17:59:00,
2013-04-02 14:04:00,77.2,49.6,30.21,NNE,22,7.6,7.6,38,0.00,,SCT025,0.00,VWS V14.00,2013-04-02 18:04:00,
2013-04-02 14:09:00,77.5,50.0,30.21,NNE,22,2.7,2.7,38,0.00,,SCT025,0.00,VWS V14.00,2013-04-02 18:09:00,
2013-04-02 14:14:00,77.5,50.0,30.21,NE,45,5.4,5.4,38,0.00,,SCT025,0.00,VWS V14.00,2013-04-02 18:14:00,
2013-04-02 14:19:00,76.5,50.4,30.21,ENE,68,6.0,6.0,40,0.00,,SCT025,0.00,VWS V14.00,2013-04-02 18:19:00,
2013-04-02 14:24:00,76.5,51.7,30.21,NE,45,5.8,5.8,42,0.00,,SCT025,0.00,VWS V14.00,2013-04-02 18:24:00,
2013-04-02 14:29:00,75.7,52.9,30.21,NE,45,4.3,4.3,45,0.00,,SCT025,0.00,VWS V14.00,2013-04-02 18:29:00,
2013-04-02 14:34:00,75.6,53.3,30.21,North,0,2.9,2.9,46,0.00,,SCT025,0.00,VWS V14.00,2013-04-02 18:34:00,
2013-04-02 14:39:00,75.7,54.1,30.21,ENE,68,7.6,7.6,47,0.00,,SCT025,0.00,VWS V14.00,2013-04-02 18:39:00,
2013-04-02 14:44:00,75.9,54.3,30.18,NNE,22,3.4,3.4,47,0.00,,SCT025,0.00,VWS V14.00,2013-04-02 18:44:00,
2013-04-02 14:49:00,76.1,55.0,30.18,ENE,68,6.5,6.5,48,0.00,,SCT025,0.00,VWS V14.00,2013-04-02 18:49:00,
2013-04-02 14:54:00,75.7,54.7,30.18,NE,45,7.4,7.4,48,0.00,,SCT025,0.00,VWS V14.00,2013-04-02 18:54:00,
2013-04-02 15:00:00,76.1,55.6,30.15,ENE,68,5.6,5.6,49,0.00,,SCT025,0.00,VWS V14.00,2013-04-02 19:00:00,
2013-04-02 15:05:00,76.3,56.3,30.15,ENE,68,4.0,4.0,50,0.00,,SCT025,0.00,VWS V14.00,2013-04-02 19:05:00,
2013-04-02 15:10:00,76.3,56.3,30.15,NE,45,1.6,1.6,50,0.00,,SCT025,0.00,VWS V14.00,2013-04-02 19:10:00,
2013-04-02 15:15:00,76.3,56.3,30.18,ENE,68,4.9,4.9,50,0.00,,SCT025,0.00,VWS V14.00,2013-04-02 19:15:00,
2013-04-02 15:20:00,76.3,54.6,30.18,ENE,68,8.5,8.5,47,0.00,,SCT025,0.00,VWS V14.00,2013-04-02 19:20:00,
2013-04-02 15:25:00,76.3,54.6,30.18,ENE,68,4.3,4.3,47,0.00,,SCT025,0.00,VWS V14.00,2013-04-02 19:25:00,
2013-04-02 15:30:00,76.3,55.2,30.18,NNE,22,4.9,4.9,48,0.00,,SCT025,0.00,VWS V14.00,2013-04-02 19:30:00,
2013-04-02 15:35:00,76.1,55.6,30.18,NE,45,4.3,4.3,49,0.00,,SCT025,0.00,VWS V14.00,2013-04-02 19:35:00,
2013-04-02 15:40:00,76.3,55.7,30.18,East,90,4.3,4.3,49,0.00,,SCT025,0.00,VWS V14.00,2013-04-02 19:40:00,
2013-04-02 15:45:00,76.3,55.7,30.18,ENE,68,5.8,5.8,49,0.00,,SCT025,0.00,VWS V14.00,2013-04-02 19:45:00,
2013-04-02 15:50:00,75.7,55.2,30.15,North,0,6.7,6.7,49,0.00,,SCT025,0.00,VWS V14.00,2013-04-02 19:50:00,
2013-04-02 15:55:00,75.7,54.7,30.15,North,0,5.4,5.4,48,0.00,,SCT025,0.00,VWS V14.00,2013-04-02 19:55:00,
2013-04-02 16:00:00,75.7,54.7,30.15,ENE,68,4.0,4.0,48,0.00,,SCT025,0.00,VWS V14.00,2013-04-02 20:00:00,
2013-04-02 16:05:00,76.3,55.2,30.18,ENE,68,7.6,7.6,48,0.00,,SCT025,0.00,VWS V14.00,2013-04-02 20:05:00,
2013-04-02 16:10:00,76.1,53.8,30.18,East,90,5.8,5.8,46,0.00,,SCT025,0.00,VWS V14.00,2013-04-02 20:10:00,
2013-04-02 16:15:00,76.1,53.8,30.18,NE,45,7.6,7.6,46,0.00,,SCT025,0.00,VWS V14.00,2013-04-02 20:15:00,
2013-04-02 16:20:00,76.1,53.8,30.18,ENE,68,5.8,5.8,46,0.00,,SCT025,0.00,VWS V14.00,2013-04-02 20:20:00,
2013-04-02 16:25:00,76.1,54.4,30.18,East,90,3.6,3.6,47,0.00,,SCT025,0.00,VWS V14.00,2013-04-02 20:25:00,
2013-04-02 16:30:00,76.3,54.6,30.18,ENE,68,4.0,4.0,47,0.00,,SCT025,0.00,VWS V14.00,2013-04-02 20:30:00,
2013-04-02 16:35:00,76.3,55.2,30.18,ENE,68,7.6,7.6,48,0.00,,SCT025,0.00,VWS V14.00,2013-04-02 20:35:00,
2013-04-02 16:40:00,76.1,55.6,30.18,ESE,112,3.6,3.6,49,0.00,,SCT025,0.00,VWS V14.00,2013-04-02 20:40:00,
2013-04-02 16:45:00,75.9,54.3,30.18,East,90,7.2,7.2,47,0.00,,SCT025,0.00,VWS V14.00,2013-04-02 20:45:00,
2013-04-02 16:50:00,76.1,55.0,30.18,NNE,22,8.5,8.5,48,0.00,,SCT025,0.00,VWS V14.00,2013-04-02 20:50:00,
2013-04-02 16:55:00,76.3,55.2,30.18,NNE,22,6.0,6.0,48,0.00,,SCT025,0.00,VWS V14.00,2013-04-02 20:55:00,
2013-04-02 17:00:00,76.3,55.7,30.18,NE,45,3.4,3.4,49,0.00,,SCT025,0.00,VWS V14.00,2013-04-02 21:00:00,
2013-04-02 17:05:00,76.5,55.9,30.18,NNE,22,1.3,1.3,49,0.00,,SCT025,0.00,VWS V14.00,2013-04-02 21:05:00,
2013-04-02 17:10:00,76.1,55.0,30.18,ENE,68,5.8,5.8,48,0.00,,SCT025,0.00,VWS V14.00,2013-04-02 21:10:00,
2013-04-02 17:15:00,76.1,55.6,30.18,NNE,22,2.0,2.0,49,0.00,,SCT025,0.00,VWS V14.00,2013-04-02 21:15:00,
2013-04-02 17:20:00,76.1,56.1,30.18,SSE,158,2.7,2.7,50,0.00,,SCT025,0.00,VWS V14.00,2013-04-02 21:20:00,
2013-04-02 17:25:00,76.1,56.1,30.18,North,0,3.1,3.1,50,0.00,,SCT025,0.00,VWS V14.00,2013-04-02 21:25:00,
2013-04-02 17:30:00,75.9,56.0,30.18,NNE,22,2.9,2.9,50,0.00,,SCT025,0.00,VWS V14.00,2013-04-02 21:30:00,
2013-04-02 17:35:00,75.7,55.8,30.18,NE,45,4.3,4.3,50,0.00,,SCT025,0.00,VWS V14.00,2013-04-02 21:35:00,
2013-04-02 17:40:00,75.4,55.5,30.18,East,90,6.0,6.0,50,0.00,,SCT025,0.00,VWS V14.00,2013-04-02 21:40:00,
2013-04-02 17:45:00,75.2,55.3,30.18,NNE,22,4.0,4.0,50,0.00,,SCT025,0.00,VWS V14.00,2013-04-02 21:45:00,
2013-04-02 17:50:00,75.2,55.8,30.18,NE,45,4.7,4.7,51,0.00,,SCT025,0.00,VWS V14.00,2013-04-02 21:50:00,
2013-04-02 17:55:00,75.0,56.2,30.18,NE,45,3.8,3.8,52,0.00,,SCT025,0.00,VWS V14.00,2013-04-02 21:55:00,
2013-04-02 18:00:00,75.0,55.7,30.18,ENE,68,7.2,7.2,51,0.00,,SCT025,0.00,VWS V14.00,2013-04-02 22:00:00,
2013-04-02 18:05:00,75.0,56.2,30.18,NE,45,6.3,6.3,52,0.00,,SCT025,0.00,VWS V14.00,2013-04-02 22:05:00,
2013-04-02 18:10:00,75.0,56.8,30.18,ENE,68,5.6,5.6,53,0.00,,SCT025,0.00,VWS V14.00,2013-04-02 22:10:00,
2013-04-02 18:15:00,75.0,57.3,30.18,NE,45,2.7,2.7,54,0.00,,SCT025,0.00,VWS V14.00,2013-04-02 22:15:00,
2013-04-02 18:20:00,75.2,56.9,30.18,ENE,68,3.1,3.1,53,0.00,,SCT025,0.00,VWS V14.00,2013-04-02 22:20:00,
2013-04-02 18:25:00,75.2,56.9,30.18,ENE,68,2.5,2.5,53,0.00,,SCT025,0.00,VWS V14.00,2013-04-02 22:25:00,
2013-04-02 18:30:00,75.2,56.4,30.18,ENE,68,4.3,4.3,52,0.00,,SCT025,0.00,VWS V14.00,2013-04-02 22:30:00,
2013-04-02 18:35:00,75.2,56.4,30.18,NNE,22,2.5,2.5,52,0.00,,SCT025,0.00,VWS V14.00,2013-04-02 22:35:00,
2013-04-02 18:40:00,75.0,56.8,30.18,East,90,2.5,2.5,53,0.00,,SCT025,0.00,VWS V14.00,2013-04-02 22:40:00,
2013-04-02 18:45:00,75.0,56.8,30.18,ENE,68,7.6,7.6,53,0.00,,SCT025,0.00,VWS V14.00,2013-04-02 22:45:00,
2013-04-02 18:50:00,74.5,56.8,30.18,NNE,22,5.8,5.8,54,0.00,,SCT025,0.00,VWS V14.00,2013-04-02 22:50:00,
2013-04-02 18:55:00,74.5,57.3,30.18,North,0,4.0,4.0,55,0.00,,SCT025,0.00,VWS V14.00,2013-04-02 22:55:00,
2013-04-02 19:01:00,74.3,57.6,30.18,NNE,22,3.4,3.4,56,0.00,,SCT025,0.00,VWS V14.00,2013-04-02 23:01:00,
2013-04-02 19:06:00,74.1,57.9,30.18,NNW,338,2.9,2.9,57,0.00,,SCT025,0.00,VWS V14.00,2013-04-02 23:06:00,
2013-04-02 19:11:00,73.9,58.2,30.18,NNE,22,1.3,1.3,58,0.00,,SCT025,0.00,VWS V14.00,2013-04-02 23:11:00,
2013-04-02 19:16:00,73.8,58.5,30.18,NE,45,5.8,5.8,59,0.00,,SCT025,0.00,VWS V14.00,2013-04-02 23:16:00,
2013-04-02 19:21:00,73.4,58.7,30.18,NE,45,4.3,4.3,60,0.00,,SCT025,0.00,VWS V14.00,2013-04-02 23:21:00,
2013-04-02 19:47:00,72.3,60.3,30.18,NE,45,2.9,2.9,66,0.00,,SCT025,0.00,VWS V14.00,2013-04-02 23:47:00,
2013-04-02 19:52:00,72.3,60.8,30.18,ENE,68,3.6,3.6,67,0.00,,SCT025,0.00,VWS V14.00,2013-04-02 23:52:00,
2013-04-02 19:57:00,72.0,60.8,30.18,NE,45,2.7,2.7,68,0.00,,SCT025,0.00,VWS V14.00,2013-04-02 23:57:00,
2013-04-02 20:02:00,72.0,61.7,30.18,ENE,68,2.5,2.5,70,0.00,,SCT025,0.00,VWS V14.00,2013-04-03 00:02:00,
2013-04-02 20:07:00,71.8,61.5,30.18,ENE,68,0.0,0.0,70,0.00,,SCT025,0.00,VWS V14.00,2013-04-03 00:07:00,
2013-04-02 20:12:00,71.6,62.1,30.18,NE,45,2.5,2.5,72,0.00,,SCT025,0.00,VWS V14.00,2013-04-03 00:12:00,
2013-04-02 20:17:00,71.4,61.5,30.18,NNE,22,2.0,2.0,71,0.00,,SCT025,0.00,VWS V14.00,2013-04-03 00:17:00,
2013-04-02 20:22:00,71.4,61.9,30.18,ENE,68,2.5,2.5,72,0.00,,SCT025,0.00,VWS V14.00,2013-04-03 00:22:00,
2013-04-02 20:28:00,71.4,61.9,30.18,NE,45,3.4,3.4,72,0.00,,SCT025,0.00,VWS V14.00,2013-04-03 00:28:00,
2013-04-02 20:33:00,71.2,61.8,30.18,ENE,68,1.3,1.3,72,0.00,,SCT025,0.00,VWS V14.00,2013-04-03 00:33:00,
2013-04-02 20:38:00,71.2,61.0,30.18,ENE,68,3.6,3.6,70,0.00,,SCT025,0.00,VWS V14.00,2013-04-03 00:38:00,
2013-04-02 20:43:00,71.1,60.8,30.18,ENE,68,3.6,3.6,70,0.00,,SCT025,0.00,VWS V14.00,2013-04-03 00:43:00,
2013-04-02 20:48:00,71.1,60.8,30.18,ENE,68,1.6,1.6,70,0.00,,SCT025,0.00,VWS V14.00,2013-04-03 00:48:00,
2013-04-02 20:53:00,71.1,60.4,30.18,East,90,2.7,2.7,69,0.00,,SCT025,0.00,VWS V14.00,2013-04-03 00:53:00,
2013-04-02 20:58:00,71.1,60.4,30.18,ENE,68,2.5,2.5,69,0.00,,SCT025,0.00,VWS V14.00,2013-04-03 00:58:00,
2013-04-02 21:03:00,70.9,60.2,30.18,ENE,68,0.9,0.9,69,0.00,,SCT025,0.00,VWS V14.00,2013-04-03 01:03:00,
2013-04-02 21:08:00,70.9,60.2,30.18,East,90,3.6,3.6,69,0.00,,SCT025,0.00,VWS V14.00,2013-04-03 01:08:00,
2013-04-02 21:13:00,70.9,60.2,30.18,NNE,22,2.5,2.5,69,0.00,,SCT025,0.00,VWS V14.00,2013-04-03 01:13:00,
2013-04-02 21:18:00,70.9,60.6,30.18,NE,45,1.6,1.6,70,0.00,,SCT025,0.00,VWS V14.00,2013-04-03 01:18:00,
2013-04-02 21:23:00,70.9,60.6,30.18,ENE,68,2.2,2.2,70,0.00,,SCT025,0.00,VWS V14.00,2013-04-03 01:23:00,
2013-04-02 21:28:00,70.7,60.8,30.18,NE,45,1.3,1.3,71,0.00,,SCT025,0.00,VWS V14.00,2013-04-03 01:28:00,
2013-04-02 21:33:00,70.7,60.8,30.21,ENE,68,2.9,2.9,71,0.00,,SCT025,0.00,VWS V14.00,2013-04-03 01:33:00,
2013-04-02 21:38:00,70.5,61.1,30.21,East,90,2.5,2.5,72,0.00,,SCT025,0.00,VWS V14.00,2013-04-03 01:38:00,
2013-04-02 21:43:00,70.5,61.5,30.21,ENE,68,1.3,1.3,73,0.00,,SCT025,0.00,VWS V14.00,2013-04-03 01:43:00,
2013-04-02 21:48:00,70.3,61.3,30.21,ENE,68,1.6,1.6,73,0.00,,SCT025,0.00,VWS V14.00,2013-04-03 01:48:00,
2013-04-02 21:53:00,70.3,61.7,30.21,ENE,68,0.0,0.0,74,0.00,,SCT025,0.00,VWS V14.00,2013-04-03 01:53:00,
2013-04-02 21:58:00,70.2,61.9,30.21,ENE,68,1.6,1.6,75,0.00,,SCT025,0.00,VWS V14.00,2013-04-03 01:58:00,
2013-04-02 22:03:00,70.2,62.2,30.21,East,90,2.5,2.5,76,0.00,,SCT025,0.00,VWS V14.00,2013-04-03 02:03:00,
2013-04-02 22:08:00,70.2,62.6,30.21,ENE,68,1.6,1.6,77,0.00,,SCT025,0.00,VWS V14.00,2013-04-03 02:08:00,
2013-04-02 22:13:00,70.2,62.6,30.21,NE,45,1.3,1.3,77,0.00,,SCT025,0.00,VWS V14.00,2013-04-03 02:13:00,
2013-04-02 22:18:00,70.2,62.6,30.21,NNE,22,1.6,1.6,77,0.00,,SCT025,0.00,VWS V14.00,2013-04-03 02:18:00,
2013-04-02 22:23:00,70.0,62.1,30.21,ESE,112,2.2,2.2,76,0.00,,SCT025,0.00,VWS V14.00,2013-04-03 02:23:00,
2013-04-02 22:28:00,70.0,62.1,30.21,ENE,68,1.1,1.1,76,0.00,,SCT025,0.00,VWS V14.00,2013-04-03 02:28:00,
2013-04-02 22:34:00,70.0,62.1,30.21,NNE,22,2.5,2.5,76,0.00,,SCT025,0.00,VWS V14.00,2013-04-03 02:34:00,
2013-04-02 22:39:00,70.0,62.1,30.21,ENE,68,2.5,2.5,76,0.00,,SCT025,0.00,VWS V14.00,2013-04-03 02:39:00,
2013-04-02 22:44:00,70.0,62.1,30.21,ENE,68,2.9,2.9,76,0.00,,SCT025,0.00,VWS V14.00,2013-04-03 02:44:00,
2013-04-02 22:49:00,70.0,62.1,30.21,NE,45,2.7,2.7,76,0.00,,SCT025,0.00,VWS V14.00,2013-04-03 02:49:00,
2013-04-02 22:54:00,70.0,62.1,30.21,East,90,2.9,2.9,76,0.00,,SCT025,0.00,VWS V14.00,2013-04-03 02:54:00,
2013-04-02 22:59:00,70.2,62.2,30.21,ENE,68,2.5,2.5,76,0.00,,SCT025,0.00,VWS V14.00,2013-04-03 02:59:00,
2013-04-02 23:04:00,70.0,62.1,30.21,ENE,68,2.0,2.0,76,0.00,,SCT025,0.00,VWS V14.00,2013-04-03 03:04:00,
2013-04-02 23:09:00,70.0,62.1,30.21,NE,45,2.5,2.5,76,0.00,,SCT025,0.00,VWS V14.00,2013-04-03 03:09:00,
2013-04-02 23:14:00,70.0,62.5,30.21,East,90,2.0,2.0,77,0.00,,SCT025,0.00,VWS V14.00,2013-04-03 03:14:00,
2013-04-02 23:19:00,70.0,62.5,30.21,ENE,68,0.9,0.9,77,0.00,,SCT025,0.00,VWS V14.00,2013-04-03 03:19:00,
2013-04-02 23:24:00,70.0,62.5,30.21,ENE,68,3.4,3.4,77,0.00,,SCT025,0.00,VWS V14.00,2013-04-03 03:24:00,
2013-04-02 23:29:00,70.0,62.5,30.21,East,90,3.4,3.4,77,0.00,,SCT025,0.00,VWS V14.00,2013-04-03 03:29:00,
2013-04-02 23:34:00,70.0,62.5,30.21,ENE,68,1.3,1.3,77,0.00,,SCT025,0.00,VWS V14.00,2013-04-03 03:34:00,
2013-04-02 23:39:00,70.0,62.5,30.21,ENE,68,1.1,1.1,77,0.00,,SCT025,0.00,VWS V14.00,2013-04-03 03:39:00,
2013-04-02 23:44:00,70.0,62.5,30.21,ESE,112,0.0,0.0,77,0.00,,SCT025,0.00,VWS V14.00,2013-04-03 03:44:00,
2013-04-02 23:49:00,70.0,62.5,30.21,ENE,68,1.3,1.3,77,0.00,,SCT025,0.00,VWS V14.00,2013-04-03 03:49:00,
2013-04-02 23:54:00,69.8,62.3,30.21,ESE,112,0.0,0.0,77,0.00,,SCT025,0.00,VWS V14.00,2013-04-03 03:54:00,
2013-04-02 23:59:00,69.8,62.3,30.24,East,90,2.7,2.7,77,0.00,,SCT025,0.00,VWS V14.00,2013-04-03 03:59:00,